EA1EI-13 Weather Reports


time (UTC)temp
F
wind
direction
speed
knots
gust
knots
rain 1hr
in
rain 24hr
in
rain mn
in
humidity
%
barometer
mb
20260507071005 49 85 0.0 0.0 0.00 0.00 0.00 89 1010.2
20260507070009 48 63 0.0 0.0 0.00 0.00 0.00 89 1010.2
20260507065005 48 44 0.0 0.0 0.00 0.00 0.00 90 1010.3
20260507064004 48 78 0.0 0.0 0.00 0.00 0.00 89 1010.2
20260507063005 48 47 0.0 0.0 0.00 0.00 0.00 89 1010.4
20260507062004 48 54 0.0 0.0 0.00 0.00 0.00 89 1010.4
20260507061004 47 70 0.0 0.0 0.00 0.00 0.00 89 1010.6
20260507060004 47 73 0.0 0.0 0.00 0.00 0.00 89 1010.2
20260507053005 47 80 0.0 0.0 0.00 0.00 0.00 88 1010.3
20260507052005 47 80 0.0 0.0 0.00 0.00 0.00 88 1010.3
20260507051005 48 80 0.0 0.0 0.00 0.00 0.00 88 1010.3
20260507050005 48 73 0.0 0.0 0.00 0.00 0.00 87 1010.1
20260507045004 48 67 0.0 0.0 0.00 0.00 0.00 87 1010.1
20260507044005 48 55 0.0 0.0 0.00 0.00 0.00 86 1010.2
20260507042005 49 67 0.0 0.0 0.00 0.00 0.00 84 1010.3
20260507041004 49 67 0.0 0.0 0.00 0.00 0.00 83 1010.2
20260507040005 50 67 0.0 0.0 0.00 0.00 0.00 82 1010.3
20260507035004 50 67 0.0 0.0 0.00 0.00 0.00 82 1010.2
20260507034004 50 65 0.0 0.0 0.00 0.00 0.00 82 1010.2
20260507033004 51 60 0.0 0.0 0.00 0.00 0.00 81 1010.1
20260507032004 51 60 0.0 0.0 0.00 0.00 0.00 81 1010.1
20260507025005 51 60 0.0 0.0 0.00 0.00 0.00 81 1010.1
20260507023005 52 71 0.0 0.0 0.00 0.00 0.00 81 1010.2
20260507022004 52 71 0.0 0.0 0.00 0.00 0.00 80 1010.3
20260507021004 52 55 0.0 0.0 0.00 0.00 0.00 79 1010.4
20260507020004 52 67 0.0 0.0 0.00 0.00 0.00 80 1010.4
20260507015005 52 76 0.0 0.0 0.00 0.00 0.00 80 1010.5
20260507014004 52 61 0.0 0.0 0.00 0.00 0.00 80 1010.5
20260507013004 52 69 0.0 0.0 0.00 0.00 0.00 80 1010.6
20260507012005 52 69 0.0 0.0 0.00 0.00 0.00 80 1010.7
20260507011005 52 70 0.0 0.0 0.00 0.00 0.00 80 1010.8
20260507010005 52 79 0.0 0.0 0.00 0.00 0.00 80 1010.8
20260507005004 51 55 0.0 0.0 0.00 0.00 0.00 81 1010.9
20260507004004 51 57 0.0 0.0 0.00 0.00 0.00 81 1011.0
20260507003004 51 51 0.0 0.0 0.00 0.00 0.00 81 1011.0
20260506235005 52 68 0.0 0.0 0.00 0.00 0.00 78 1011.3
20260506234005 51 101 0.0 0.0 0.00 0.00 0.00 78 1011.4
20260506233004 51 99 0.0 0.0 0.00 0.00 0.00 78 1011.4
20260506232005 51 99 0.0 0.0 0.00 0.00 0.00 77 1011.3
20260506231005 51 103 0.0 0.0 0.00 0.00 0.00 76 1011.3
20260506230005 52 105 0.0 0.0 0.00 0.00 0.00 73 1011.4
20260506225004 52 106 0.0 0.0 0.00 0.00 0.00 72 1011.3
20260506224004 53 91 0.0 0.0 0.00 0.00 0.00 71 1011.5
20260506222003 53 90 0.0 0.0 0.00 0.00 0.00 71 1011.5
20260506221004 53 89 0.0 0.0 0.00 0.00 0.00 70 1011.5
20260506220004 53 90 0.0 0.0 0.00 0.00 0.00 69 1011.4
20260506212004 54 77 0.0 0.0 0.00 0.00 0.00 65 1011.6
20260506211004 54 76 0.0 0.0 0.00 0.00 0.00 66 1011.7
20260506205004 55 68 0.0 0.0 0.00 0.00 0.00 63 1011.7
20260506204004 55 67 0.0 0.0 0.00 0.00 0.00 63 1011.6
20260506203005 56 67 0.0 0.0 0.00 0.00 0.00 62 1011.4
20260506202004 57 67 0.0 0.0 0.00 0.00 0.00 61 1011.3
20260506201004 58 61 0.0 0.0 0.00 0.00 0.00 61 1011.3
20260506200004 58 61 0.0 0.0 0.00 0.00 0.00 60 1011.2
20260506194005 59 61 0.0 0.0 0.00 0.00 0.00 56 1011.1
20260506193005 60 39 0.0 0.0 0.00 0.00 0.00 55 1011.1
20260506192005 60 56 0.0 0.0 0.00 0.00 0.00 54 1011.0
20260506183005 61 81 0.0 0.0 0.00 0.00 0.00 52 1011.0
20260506182004 61 72 0.0 0.0 0.00 0.00 0.00 51 1010.9
20260506181005 62 34 0.0 0.0 0.00 0.00 0.00 51 1010.9
20260506173004 62 64 0.0 0.9 0.00 0.00 0.00 50 1011.0
20260506171005 62 110 0.0 0.0 0.00 0.00 0.00 48 1011.1
20260506170005 62 110 0.0 0.0 0.00 0.00 0.00 49 1011.2
20260506165004 62 115 0.0 0.0 0.00 0.00 0.00 47 1011.2
20260506163004 61 109 0.0 0.0 0.00 0.00 0.00 50 1011.4
20260506162005 61 95 0.0 0.0 0.00 0.00 0.00 50 1011.5
20260506161005 62 114 0.0 0.0 0.00 0.00 0.00 50 1011.5
20260506155004 62 80 0.0 0.0 0.00 0.00 0.00 49 1011.7
20260506153005 63 207 0.0 0.0 0.00 0.00 0.00 49 1011.7
20260506152005 62 108 0.0 0.0 0.00 0.00 0.00 49 1011.8
20260506151005 61 114 0.0 0.0 0.00 0.00 0.00 50 1011.9
20260506150004 61 101 0.0 0.0 0.00 0.00 0.00 51 1012.0
20260506143004 63 105 0.0 1.7 0.00 0.00 0.00 50 1012.3
20260506142005 63 103 0.0 0.0 0.00 0.00 0.00 50 1012.5
20260506141005 61 66 0.0 0.0 0.00 0.00 0.00 51 1012.6
20260506140004 62 89 0.0 0.0 0.00 0.00 0.00 52 1012.7
20260506135004 61 236 0.0 0.0 0.00 0.00 0.00 52 1012.8
20260506134004 60 214 0.0 0.0 0.00 0.00 0.00 52 1013.0
20260506133004 60 121 0.0 0.0 0.00 0.00 0.00 52 1013.1
20260506132005 60 114 0.0 0.9 0.00 0.00 0.00 54 1013.1
20260506131005 60 109 0.0 0.0 0.00 0.00 0.00 53 1013.1
20260506125004 59 66 0.0 0.0 0.00 0.00 0.00 56 1013.3
20260506124005 59 131 0.0 0.9 0.00 0.00 0.00 55 1013.4
20260506123004 58 103 0.0 0.0 0.00 0.00 0.00 56 1013.5
20260506122004 58 94 0.0 0.9 0.00 0.00 0.00 56 1013.5
20260506121004 59 60 0.0 0.0 0.00 0.00 0.00 56 1013.6
20260506120005 60 73 0.0 0.0 0.00 0.00 0.00 54 1013.7
20260506115004 60 184 0.0 0.0 0.00 0.00 0.00 54 1013.7
20260506114005 60 331 0.0 0.0 0.00 0.00 0.00 53 1013.9
20260506113004 61 29 0.0 0.0 0.00 0.00 0.00 54 1014.0
20260506112004 59 103 0.0 0.0 0.00 0.00 0.00 55 1014.0
20260506111004 59 51 0.0 0.0 0.00 0.00 0.00 55 1014.2
20260506105005 58 55 0.0 0.0 0.00 0.00 0.00 56 1014.2
20260506104003 57 347 0.0 0.0 0.00 0.00 0.00 57 1014.3
20260506103004 56 60 0.0 0.0 0.00 0.00 0.00 58 1014.3
20260506101004 55 100 0.0 0.9 0.00 0.00 0.00 61 1014.4
20260506100004 55 56 0.0 0.0 0.00 0.00 0.00 64 1014.5
20260506095004 53 65 0.0 0.9 0.00 0.00 0.00 67 1014.5
20260506094005 53 76 0.0 0.0 0.00 0.00 0.00 69 1014.5
20260506093005 53 39 0.0 0.0 0.00 0.00 0.00 69 1014.6
20260506092004 53 89 0.0 0.0 0.00 0.00 0.00 69 1014.6
20260506091004 53 75 0.0 0.0 0.00 0.00 0.00 71 1014.6
20260506085004 51 83 0.0 0.9 0.00 0.00 0.00 77 1014.5
20260506084004 51 76 0.0 0.0 0.00 0.00 0.00 81 1014.6
20260506083005 50 88 0.0 0.0 0.00 0.00 0.00 83 1014.6
20260506082005 49 88 0.0 0.0 0.00 0.00 0.00 84 1014.6
20260506073004 45 103 0.0 0.0 0.00 0.00 0.00 87 1014.7
20260506072004 45 104 0.0 0.0 0.00 0.00 0.00 88 1014.7